Weather History for CYUS - May, 2013

Change the Weather History Date:

Sunday, May 5, 2013

  Actual Average Record
Temperature  
Mean Temperature -9 °F -  
Max Temperature 0 °F - - ()
Min Temperature -18 °F - - ()
Degree Days  
Heating Degree Days 74    
Moisture  
Dew Point -    
Average Humidity    
Maximum Humidity    
Minimum Humidity    
Precipitation  
Precipitation 0.00 in - - ()
Sea Level Pressure  
Sea Level Pressure 30.11 in    
Wind  
Wind Speed 7 mph ()    
Max Wind Speed 13 mph    
Max Gust Speed -    
Visibility 9.0 miles    
Events      
T = Trace of Precipitation, MM = Missing Value Source: Averaged Metar Reports

Daily Weather History Graph

Daily Weather History Graph

Search for Another Location

Airport or City:

Trip Planner

Search our weather history database for the weather conditions in past years. The results will help you decide how hot, cold, wet, or windy it might be!

Date:

Astronomy

May. 05, 2013 Rise Set
Actual Time 3:38 AM CDT 10:46 PM CDT
Civil Twilight 1:42 AM CDT 12:37 AM CDT
Nautical Twilight Sun does not set Sun does not set
Astronomical Twilight Sun does not set Sun does not set
Moon 3:36 AM CDT (5/5) 4:33 PM CDT (5/5)
Length of Visible Light 22h 55m
Length of Day
19h 08m
Waning Crescent, 18% of the Moon is Illuminated
May 5
Waning Crescent
May 9
New
May 17
First Quarter
May 24
Full
May 31
Last Quarter

Hourly Weather History & Observations

Time (CDT) Temp. Windchill Dew Point Humidity Pressure Visibility Wind Dir Wind Speed Gust Speed Precip Events Conditions
12:00 AM -14.8 °F -36.6 °F - N/A% 30.18 in 9.0 mi NE 12.7 mph - N/A   Unknown
1:00 AM -17 °F - - % 30.17 in 9 mi NE 11.5 mph - -  
1:00 AM -16.6 °F -38.9 °F - N/A% 30.17 in 9.0 mi NE 12.7 mph - N/A   Unknown
2:00 AM -16.6 °F -37.9 °F - N/A% 30.16 in 9.0 mi NE 11.5 mph - N/A   Unknown
3:00 AM -16.6 °F -35.7 °F - N/A% 30.14 in 9.0 mi NNE 9.2 mph - N/A   Unknown
4:00 AM -18.4 °F -40.2 °F - N/A% 30.14 in 9.0 mi NNE 11.5 mph - N/A   Unknown
5:00 AM -16.6 °F -38.9 °F - N/A% 30.13 in 9.0 mi NNE 12.7 mph - N/A   Unknown
6:00 AM -11.2 °F -30.1 °F - N/A% 30.12 in 9.0 mi ENE 10.4 mph - N/A   Unknown
7:00 AM -10 °F - - % 30.12 in 9 mi ENE 9.2 mph - -  
7:00 AM -11.2 °F -29.0 °F - N/A% 30.12 in 9.0 mi ENE 9.2 mph - N/A   Unknown
8:00 AM -9.4 °F -24.3 °F - N/A% 30.11 in 9.0 mi East 6.9 mph - N/A   Unknown
9:00 AM -7.6 °F -16.5 °F - N/A% 30.11 in 9.0 mi ESE 3.5 mph - N/A   Unknown
10:00 AM -4 °F - - % 30.10 in 9 mi Calm Calm - -  
10:00 AM -4.0 °F - - N/A% 30.10 in 9.0 mi Calm Calm - N/A   Unknown
11:00 AM -4.0 °F - - N/A% 30.10 in 9.0 mi Calm Calm - N/A   Unknown
12:00 PM -2.2 °F - - N/A% 30.10 in 9.0 mi SE 2.3 mph - N/A   Unknown
1:00 PM -3 °F - - % 30.09 in 9 mi WNW 2.3 mph - -  
1:00 PM -2.2 °F - - N/A% 30.09 in 9.0 mi WNW 2.3 mph - N/A   Unknown
2:00 PM -2.2 °F -10.4 °F - N/A% 30.09 in 9.0 mi West 3.5 mph - N/A   Unknown
3:00 PM -2.2 °F -10.4 °F - N/A% 30.09 in 9.0 mi WNW 3.5 mph - N/A   Unknown
4:00 PM -2 °F - - % 30.09 in 9 mi WNW 3.5 mph - -  
4:00 PM -2.2 °F -12.5 °F - N/A% 30.09 in 9.0 mi WNW 4.6 mph - N/A   Unknown
5:00 PM -0.4 °F -12.0 °F - N/A% 30.10 in 9.0 mi NW 5.8 mph - N/A   Unknown
6:00 PM -2.2 °F -14.2 °F - N/A% 30.09 in 9.0 mi NNW 5.8 mph - N/A   Unknown
7:00 PM -2 °F - - % 30.09 in 9 mi NW 4.6 mph - -  
7:00 PM -2.2 °F -10.4 °F - N/A% 30.09 in 9.0 mi NW 3.5 mph - N/A   Unknown
8:00 PM -0.4 °F -8.3 °F - N/A% 30.09 in 9.0 mi West 3.5 mph - N/A   Unknown
9:00 PM -2.2 °F -12.5 °F - N/A% 30.09 in 9.0 mi WSW 4.6 mph - N/A   Unknown
9:22 PM -5.8 °F -22.4 °F - N/A% 30.06 in 9.0 mi West 9.2 mph - N/A   Unknown
10:00 PM -7 °F - - % 30.09 in 9 mi WNW 9.2 mph - -  
10:00 PM -7.6 °F -24.6 °F - N/A% 30.09 in 9.0 mi WNW 9.2 mph - N/A   Unknown
10:18 PM -7.6 °F -24.6 °F - N/A% 30.07 in 9.0 mi WNW 9.2 mph - N/A   Unknown
11:00 PM -11.2 °F -27.8 °F - N/A% 30.10 in 9.0 mi West 8.1 mph - N/A   Unknown
11:41 PM -13.0 °F -32.4 °F - N/A% 30.08 in 9.0 mi West 10.4 mph - N/A   Unknown
11:58 PM -13.0 °F -32.4 °F - N/A% 30.08 in 9.0 mi WNW 10.4 mph - N/A   Unknown